sat.trackr.live / text

‹ back to catalog

STARLINK-31020

NORAD 58509 · 2023-191B

PAYLOAD ACTIVE UNKNOWN

§ Identity

Operator
Country
US
Launch date
2023-12-07
Launch site
AFETR
Launch vehicle
Mass (kg)
RCS (m²)

Purposes: comms

External: N2YO · Heavens-Above · Gunter

§ Orbital elements

Epoch: 2026-09-20T19:41:22.574688Z

Period
94.27 min
Inclination
43.0020°
Eccentricity
0.0001092
Mean motion
15.27577699 rev/d
Perigee alt
482.3 km
Apogee alt
483.8 km
Semi-major
6,861.2 km
B*
2.4364e-5
RAAN
88.2877°
Arg perigee
267.3246°
Mean anomaly
92.7480°
Rev number
15,523

§ Raw data

STARLINK-310201 58509U 23191B   26263.82040017  .00000408  00000+0  24364-4 0  99982 58509  43.0020  88.2877 0001092 267.3246  92.7480 15.27577699155234

JSON: /api/v1/satellites/58509 · /tle

For live sub-satellite position, see the globe view (requires WebGL).

§ Visibility from observer

Set your observer location to see the next 7 days of passes ≥ 10°. The values pass through the URL so the page stays shareable.

No JS? Fill the form by hand. The geolocation button needs JavaScript.